Location: ????????
(60.5616°N, 46.8254°E)
Time: 17:39:41
(UTC+00:00)

Cosmos 44 Rocket - Pass Details

Date: 18 February 2020
Orbit: 659 x 731 km, 65.1° (Epoch: 31 March)

Event Time Altitude Azimuth Distance (km) Brightness Sun altitude
Rises 16:06:41 0° 299° (WNW) 3,001 7.9 -17.5°
Reaches altitude 10° 16:09:00 10° 301° (WNW) 2,087 6.8 -17.8°
Maximum altitude 16:13:44 76° 27° (NNE) 690 3.2 -18.4°
Enters shadow 16:15:29 39° 106° (ESE) 1,007 3.6 -18.6°
